Regional Weather Roundup
Issued by NWS

Home | Current Version | Previous Version | Text Only | Print | Product List | Glossary On
Versions: 1 2 3 4 5 6 7 8 9 10 11 12 13 14 15 16 17 18 19 20 21 22 23 24 25 26 27 28 29 30 31 32 33 34 35 36 37 38 39 40 41 42 43 44 45 46 47 48 49 50
000
ASUS44 KFWD 251215
RWRTX
NORTH TEXAS HOURLY WEATHER ROUNDUP
NATIONAL WEATHER SERVICE FORT WORTH TX
700 AM CDT WED MAY 25 2016

NOTE: "FAIR" INDICATES FEW OR NO CLOUDS BELOW 12,000 FEET WITH NO
SIGNIFICANT WEATHER AND/OR OBSTRUCTIONS TO VISIBILITY.

TXZ118-119-251300-
DALLAS/FORT WORTH METROPLEX

CITY           SKY/WX    TMP DP  RH WIND       PRES   REMARKS
DFW AIRPORT    CLOUDY    78  71  79 S15G23    29.95R
6HR MIN TEMP:  78; 6HR MAX TEMP:  81;

DALLAS LOVE    CLOUDY    77  72  84 S16       29.95R
6HR MIN TEMP:  77; 6HR MAX TEMP:  81;

FTW MEACHAM    LGT RAIN  77  72  84 S16       29.95R
6HR MIN TEMP:  77; 6HR MAX TEMP:  81; 6HR PCP: TRACE;

DAL-EXECUTIVE  CLOUDY    76  71  85 S9        29.96R
6HR MIN TEMP:  76; 6HR MAX TEMP:  79;

FTW-ALLIANCE   DRIZZLE   75  72  90 S10G17    29.94R FOG
6HR MIN TEMP:  75; 6HR MAX TEMP:  79; 6HR PCP: TRACE;

FTW-NAS-JRB    CLOUDY    76  72  87 S12       29.96R FOG
6HR MIN TEMP:  76; 6HR MAX TEMP:  81;

FTW-SPINKS     CLOUDY    75  72  88 SE10      29.97S FOG
ARLINGTON      CLOUDY    80  72  76 S12       29.95S
6HR MIN TEMP:  79; 6HR MAX TEMP:  83;

GRAND PRAIRIE  CLEAR     77  70  78 S9G21     29.96F
ADDISON        CLOUDY    77  73  88 SE16G23   29.96R
MESQUITE       MOCLDY    75  73  94 SE9       29.97R
LANCASTER      CLOUDY    75  70  83 S10       29.97S
6HR MIN TEMP:  75; 6HR MAX TEMP:  79;

$$

TXZ091>094-102>105-117-120-121-131>134-251300-
NORTH CENTRAL TEXAS

CITY           SKY/WX    TMP DP  RH WIND       PRES   REMARKS
SHRMAN/DENISON CLOUDY    73  66  78 S8        29.97S
6HR MIN TEMP:  72; 6HR MAX TEMP:  76;

GAINESVILLE    MOCLDY    74  70  88 S12       29.97R
6HR MIN TEMP:  73; 6HR MAX TEMP:  77;

BOWIE          CLOUDY    73  70  89 SE13      29.95R
6HR MIN TEMP:  73; 6HR MAX TEMP:  78;

DECATUR        CLOUDY    74  72  93 S12G18    29.95R
6HR MIN TEMP:  73; 6HR MAX TEMP:  78;

DENTON         CLOUDY    76  71  85 S14       29.95R
6HR MIN TEMP:  76; 6HR MAX TEMP:  80; 6HR PCP: TRACE;

MCKINNEY       CLOUDY    76  72  87 S15       29.96R
6HR MIN TEMP:  76; 6HR MAX TEMP:  79;

GREENVILLE     CLOUDY    75  70  83 S7        29.99R
ROCKWALL       CLOUDY    75  73  93 SE8G16    29.96R
6HR MIN TEMP:  75; 6HR MAX TEMP:  79;

TERRELL        MOCLDY    75  72  90 S12       29.98R
6HR MIN TEMP:  75; 6HR MAX TEMP:  79;

WAXAHACHIE     CLOUDY    75  74  98 S6        29.98S
6HR MIN TEMP:  74; 6HR MAX TEMP:  78;

CLEBURNE       MOCLDY    75  75 100 S12G18    29.98R FOG
GRANBURY       CLOUDY    77  72  83 SE9       29.97R
6HR MIN TEMP:  77; 6HR MAX TEMP:  80;

$$

TXZ083>090-098>101-113>116-127>130-139>142-154-155-251300-
WESTERN NORTH TEXAS

CITY           SKY/WX    TMP DP  RH WIND       PRES   REMARKS
WICHITA FALLS  CLOUDY    74  71  91 SE13      29.89R FOG
6HR MIN TEMP:  74; 6HR MAX TEMP:  77;

WF-KICKAPOO    MOCLDY    76  71  85 SE13G20   29.91R
6HR MIN TEMP:  76; 6HR MAX TEMP:  78;

VERNON         CLEAR     74  69  85 S9        29.88R
6HR MIN TEMP:  66; 6HR MAX TEMP:  89;

ABILENE        CLOUDY    75  72  90 S18G25    29.91R FOG
6HR MIN TEMP:  75; 6HR MAX TEMP:  76;

ABILENE-DYESS  MOCLDY    75  66  73 S14       29.90R
6HR MIN TEMP:  75; 6HR MAX TEMP:  76;

BRECKENRIDGE   CLOUDY    77  71  82 S8        29.91R HAZE
6HR MIN TEMP:  76; 6HR MAX TEMP:  78;

GRAHAM         CLOUDY    74  73  96 SE7       29.90R
6HR MIN TEMP:  74; 6HR MAX TEMP:  77;

MINERAL WELLS  CLOUDY    75  71  87 S8        29.93R
6HR MIN TEMP:  74; 6HR MAX TEMP:  78;

STEPHENVILLE   CLOUDY    74  70  87 S8        29.98R
6HR MIN TEMP:  74; 6HR MAX TEMP:  76;

COMANCHE       CLOUDY    74  74 100 S6        29.95S
6HR MIN TEMP:  73; 6HR MAX TEMP:  76;

BROWNWOOD      CLOUDY    73  73 100 S9        29.95R FOG
COLEMAN        CLOUDY    74  71  89 S9        29.95R FOG
6HR MIN TEMP:  74; 6HR MAX TEMP:  75;

$$

TXZ143>147-156>162-174-175-251300-
CENTRAL TEXAS

CITY           SKY/WX    TMP DP  RH WIND       PRES   REMARKS
WACO           CLOUDY    76  72  87 S12       29.97R
6HR MIN TEMP:  76; 6HR MAX TEMP:  77;

WACO-TSTC      CLOUDY    75  73  94 SE6       29.98
WACO-MCGREGOR  CLOUDY    75  73  93 S10       29.97R
6HR MIN TEMP:  75; 6HR MAX TEMP:  76;

HILLSBORO      CLOUDY    75  72  91 S8G17     29.98R
6HR MIN TEMP:  74; 6HR MAX TEMP:  76;

CORSICANA      CLOUDY    78  72  81 S13       30.00R
6HR MIN TEMP:  77; 6HR MAX TEMP:  80;

MEXIA          CLOUDY    75  74  96 S9        29.99R
6HR MIN TEMP:  75; 6HR MAX TEMP:  77;

HEARNE         CLOUDY    77  75  94 CALM      30.00R
6HR MIN TEMP:  76; 6HR MAX TEMP:  77;

CAMERON        CLOUDY    77  74  90 S5        29.99R
6HR MIN TEMP:  76; 6HR MAX TEMP:  78;

TEMPLE         CLOUDY    75  74  96 SE9       29.98R
6HR MIN TEMP:  75; 6HR MAX TEMP:  76;

KILLEEN        CLOUDY    75  72  88 SE13      29.96S
6HR MIN TEMP:  74; 6HR MAX TEMP:  76;

KILLEEN-SKYLRK PTCLDY    75  73  94 S13       29.97S
6HR MIN TEMP:  75; 6HR MAX TEMP:  76;

FORT HOOD      MOCLDY    73  72  98 SE8       29.95R
6HR MIN TEMP:  73; 6HR MAX TEMP:  74;

GATESVILLE     MOCLDY    75  72  88 S7        29.98S
HAMILTON       CLOUDY    74  74 100 S13G18    29.97S FOG
6HR MIN TEMP:  74; 6HR MAX TEMP:  76;

LAMPASAS       CLOUDY    76  72  89 S9        29.97S
6HR MIN TEMP:  76; 6HR MAX TEMP:  76;

$$

TXZ095>097-106>112-122>126-135>138-148>153-164>167-251300-
EAST TEXAS

CITY           SKY/WX    TMP DP  RH WIND       PRES   REMARKS
PARIS          CLOUDY    73  64  73 SE9       30.01R
6HR MIN TEMP:  73; 6HR MAX TEMP:  77;

SULPHUR SPRNGS CLOUDY    76  71  85 SE7       30.02R
6HR MIN TEMP:  76; 6HR MAX TEMP:  80;

MOUNT PLEASANT MOCLDY    75  71  87 SE5       30.04R
6HR MIN TEMP:  75; 6HR MAX TEMP:  77;

GILMER         CLOUDY    75  71  87 SE3       30.03R
6HR MIN TEMP:  75; 6HR MAX TEMP:  77;

MINEOLA        PTCLDY    75  72  88 SE5       30.02R
TYLER          CLOUDY    76  71  85 SE7       30.02R
6HR MIN TEMP:  76; 6HR MAX TEMP:  78;

LONGVIEW       CLOUDY    76  71  85 S5        30.02R
6HR MIN TEMP:  75; 6HR MAX TEMP:  77;

MARSHALL       CLOUDY    73  69  89 CALM      30.06R
6HR MIN TEMP:  73; 6HR MAX TEMP:  75;

ATHENS         MOCLDY    73  73 100 S6        30.00R
PALESTINE      CLOUDY    77  73  90 S3        30.02R
JACKSONVILLE   CLOUDY    75  73  92 S8        30.04S
HENDERSON      CLOUDY    76  72  87 MISG      30.04R
6HR MIN TEMP:  75; 6HR MAX TEMP:  76;

CENTER         CLOUDY    76  75  96 SE5       30.04R
6HR MIN TEMP:  76; 6HR MAX TEMP:  78;

NACOGDOCHES    CLOUDY    75  72  88 SE8       30.03R
6HR MIN TEMP:  73; 6HR MAX TEMP:  75;

LUFKIN         CLOUDY    76  73  91 SE10      30.02R
6HR MIN TEMP:  75; 6HR MAX TEMP:  76;

$$

SUPPLEMENTAL OBSERVATIONS (CENTRAL)

CITY           SKY/WX    TMP DP  RH WIND       PRES   REMARKS
LAKE TEXOMA      N/A     75  70  83 SE6         N/A
CADDO GRASSLND   N/A     75  72  88 S6          N/A
PAT MAYSE LAKE   N/A     73  72  94 SE10        N/A
GREENVILLE       N/A     75  70  83 S6          N/A
CEDAR HILL       N/A     77  72  83 S13         N/A
ATHENS           N/A     77  73  88 S8          N/A
MCGREGOR         N/A     75  72  88 S12         N/A
TEMPLE           N/A     75  72  88 S7          N/A
$C1F1C2F2C3F3C4F4C5F5C6F6C7F7C8F8C9!



USA.gov is the U.S. government's official web portal to all federal, state and local government web resources and services.